UAL700 KIAH-KEWR

Flight info

Callsign UAL700
Flight time N/A
Altitude 37000
Route LURIC8 HAWES DCT SUTTN J29 CARIN DCT MEMFS Q29 DORET J584 SLT FQM3
Aircraft B77W/H-SDE1E2E3FGHIJ2J3J4J5M1RWXYZ/LB1D1

Departure

Time 2026-05-03 23:42
Airport George Bush Intercontinental Airport (KIAH)

Arrival

Time N/A
Airport Newark Liberty International Airport (KEWR)
Time Latitude Longitude Altitude Speed Heading
2026-05-03 23:25 29.98370 -95.33165 104 ft 0 kts 335°
2026-05-03 23:28 29.98364 -95.33161 104 ft 2 kts 335°
2026-05-03 23:28 29.98346 -95.33152 104 ft 3 kts 335°
2026-05-03 23:28 29.98327 -95.33142 103 ft 3 kts 335°
2026-05-03 23:29 29.98310 -95.33133 105 ft 3 kts 323°
2026-05-03 23:29 29.98297 -95.33118 105 ft 3 kts 292°
2026-05-03 23:29 29.98294 -95.33096 102 ft 3 kts 261°
2026-05-03 23:29 29.98298 -95.33074 101 ft 3 kts 254°
2026-05-03 23:30 29.98302 -95.33056 102 ft 1 kts 267°
2026-05-03 23:30 29.98302 -95.33055 103 ft 0 kts 268°
2026-05-03 23:32 29.98301 -95.33115 104 ft 12 kts 269°
2026-05-03 23:32 29.98299 -95.33209 107 ft 12 kts 269°
2026-05-03 23:32 29.98300 -95.33303 106 ft 12 kts 270°
2026-05-03 23:32 29.98300 -95.33396 107 ft 12 kts 270°
2026-05-03 23:33 29.98301 -95.33490 105 ft 12 kts 270°
2026-05-03 23:33 29.98305 -95.33583 105 ft 12 kts 276°
2026-05-03 23:33 29.98312 -95.33676 106 ft 12 kts 274°
2026-05-03 23:33 29.98317 -95.33770 107 ft 12 kts 272°
2026-05-03 23:34 29.98318 -95.33863 107 ft 12 kts 270°
2026-05-03 23:34 29.98316 -95.33957 106 ft 12 kts 268°
2026-05-03 23:34 29.98336 -95.34024 108 ft 8 kts 305°
2026-05-03 23:34 29.98365 -95.34080 108 ft 8 kts 296°
2026-05-03 23:35 29.98377 -95.34144 105 ft 8 kts 270°
2026-05-03 23:35 29.98376 -95.34211 105 ft 8 kts 270°
2026-05-03 23:35 29.98376 -95.34277 106 ft 9 kts 270°
2026-05-03 23:35 29.98376 -95.34382 106 ft 14 kts 264°
2026-05-03 23:36 29.98331 -95.34482 106 ft 14 kts 242°
2026-05-03 23:36 29.98324 -95.34592 108 ft 14 kts 272°
2026-05-03 23:36 29.98324 -95.34703 109 ft 14 kts 270°
2026-05-03 23:36 29.98325 -95.34816 109 ft 14 kts 270°
2026-05-03 23:37 29.98324 -95.34928 109 ft 14 kts 270°
2026-05-03 23:37 29.98324 -95.35040 109 ft 14 kts 269°
2026-05-03 23:37 29.98326 -95.35150 108 ft 11 kts 283°
2026-05-03 23:37 29.98385 -95.35206 107 ft 11 kts 335°
2026-05-03 23:38 29.98456 -95.35248 107 ft 11 kts 332°
2026-05-03 23:38 29.98526 -95.35291 107 ft 11 kts 332°
2026-05-03 23:38 29.98597 -95.35334 107 ft 11 kts 332°
2026-05-03 23:38 29.98666 -95.35376 108 ft 11 kts 332°
2026-05-03 23:39 29.98736 -95.35419 108 ft 11 kts 332°
2026-05-03 23:39 29.98807 -95.35461 108 ft 11 kts 332°
2026-05-03 23:39 29.98875 -95.35507 108 ft 9 kts 320°
2026-05-03 23:39 29.98882 -95.35561 108 ft 7 kts 254°
2026-05-03 23:40 29.98860 -95.35610 109 ft 7 kts 241°
2026-05-03 23:40 29.98835 -95.35664 109 ft 11 kts 241°
2026-05-03 23:40 29.98796 -95.35739 110 ft 11 kts 229°
2026-05-03 23:40 29.98725 -95.35748 110 ft 11 kts 154°
2026-05-03 23:41 29.98562 -95.35642 109 ft 55 kts 152°
2026-05-03 23:41 29.98018 -95.35310 108 ft 120 kts 152°
2026-05-03 23:41 29.97124 -95.34766 148 ft 164 kts 153°
2026-05-03 23:41 29.96102 -95.34161 605 ft 166 kts 154°
2026-05-03 23:42 29.95085 -95.33533 1181 ft 168 kts 153°
2026-05-03 23:42 29.94121 -95.32746 1688 ft 178 kts 127°
2026-05-03 23:42 29.93715 -95.31343 2018 ft 202 kts 91°
2026-05-03 23:42 29.94174 -95.29712 2282 ft 233 kts 53°
2026-05-03 23:43 29.95523 -95.28568 2777 ft 247 kts 26°
2026-05-03 23:43 29.97101 -95.27777 3562 ft 249 kts 23°
2026-05-03 23:43 29.98686 -95.26996 4416 ft 248 kts 24°
2026-05-03 23:43 30.00317 -95.26153 4877 ft 263 kts 24°
2026-05-03 23:44 30.02004 -95.25282 5634 ft 268 kts 24°
2026-05-03 23:44 30.03709 -95.24389 6408 ft 271 kts 25°
2026-05-03 23:44 30.05437 -95.23474 7118 ft 276 kts 24°
2026-05-03 23:44 30.07195 -95.22538 7846 ft 280 kts 24°
2026-05-03 23:45 30.08968 -95.21588 8598 ft 282 kts 24°
2026-05-03 23:45 30.10761 -95.20625 9362 ft 285 kts 24°
2026-05-03 23:45 30.12569 -95.19654 10100 ft 289 kts 24°
2026-05-03 23:45 30.14424 -95.18655 10535 ft 304 kts 24°
2026-05-03 23:46 30.16392 -95.17596 10714 ft 328 kts 24°
2026-05-03 23:46 30.18533 -95.16443 10901 ft 352 kts 24°
2026-05-03 23:46 30.20818 -95.15212 11223 ft 371 kts 24°
2026-05-03 23:46 30.23193 -95.13930 11864 ft 380 kts 24°
2026-05-03 23:47 30.25568 -95.12521 12673 ft 387 kts 29°
2026-05-03 23:47 30.27825 -95.10788 13553 ft 392 kts 33°
2026-05-03 23:47 30.30069 -95.08960 14351 ft 398 kts 33°
2026-05-03 23:47 30.32351 -95.07096 15166 ft 402 kts 33°
2026-05-03 23:48 30.34648 -95.05232 16016 ft 405 kts 32°
2026-05-03 23:48 30.36975 -95.03359 16840 ft 409 kts 31°
2026-05-03 23:48 30.39329 -95.01468 17611 ft 414 kts 31°
2026-05-03 23:48 30.41717 -94.99572 18369 ft 418 kts 30°
2026-05-03 23:49 30.44157 -94.97702 19020 ft 422 kts 28°
2026-05-03 23:49 30.46629 -94.95830 19663 ft 427 kts 28°
2026-05-03 23:49 30.49133 -94.93931 20303 ft 432 kts 28°
2026-05-03 23:49 30.51660 -94.92002 20939 ft 437 kts 28°
2026-05-03 23:50 30.54208 -94.90050 21569 ft 441 kts 28°
2026-05-03 23:50 30.55913 -94.88742 21974 ft 444 kts 27°
2026-05-03 23:50 30.59380 -94.86082 22782 ft 450 kts 27°
2026-05-03 23:50 30.62006 -94.84067 23359 ft 455 kts 27°
2026-05-03 23:51 30.63764 -94.82717 23744 ft 458 kts 27°
2026-05-03 23:51 30.66430 -94.80668 24239 ft 461 kts 27°
2026-05-03 23:51 30.69112 -94.78603 24779 ft 464 kts 26°
2026-05-03 23:51 30.71812 -94.76523 25312 ft 466 kts 26°
2026-05-03 23:52 30.75420 -94.73742 25981 ft 470 kts 26°
2026-05-03 23:52 30.77266 -94.72317 26326 ft 472 kts 26°
2026-05-03 23:52 30.80009 -94.70199 26817 ft 475 kts 25°
2026-05-03 23:52 30.82774 -94.68064 27306 ft 478 kts 25°
2026-05-03 23:53 30.85549 -94.65919 27776 ft 481 kts 25°
2026-05-03 23:53 30.88342 -94.63759 28234 ft 483 kts 25°
2026-05-03 23:53 30.91149 -94.61585 28666 ft 486 kts 25°
2026-05-03 23:53 30.93933 -94.59428 29065 ft 489 kts 25°
2026-05-03 23:54 30.96778 -94.57222 29455 ft 491 kts 25°
2026-05-03 23:54 30.99629 -94.55010 29841 ft 493 kts 24°
2026-05-03 23:54 31.02489 -94.52791 30256 ft 494 kts 24°
2026-05-03 23:54 31.05345 -94.50575 30683 ft 493 kts 24°
2026-05-03 23:55 31.08193 -94.48363 31124 ft 491 kts 24°
2026-05-03 23:55 31.11032 -94.46159 31548 ft 490 kts 23°
2026-05-03 23:55 31.13869 -94.43956 31957 ft 489 kts 23°
2026-05-03 23:55 31.16698 -94.41757 32359 ft 488 kts 23°
2026-05-03 23:56 31.19517 -94.39562 32775 ft 487 kts 22°
2026-05-03 23:56 31.22329 -94.37368 33172 ft 486 kts 22°
2026-05-03 23:56 31.25131 -94.35181 33556 ft 485 kts 22°
2026-05-03 23:56 31.27933 -94.32993 33945 ft 483 kts 22°
2026-05-03 23:57 31.30734 -94.30805 34299 ft 482 kts 22°
2026-05-03 23:57 31.33514 -94.28631 34656 ft 480 kts 22°
2026-05-03 23:57 31.36283 -94.26463 35017 ft 478 kts 22°
2026-05-03 23:57 31.39042 -94.24302 35329 ft 477 kts 22°
2026-05-03 23:58 31.41795 -94.22146 35639 ft 476 kts 22°
2026-05-03 23:58 31.44543 -94.19992 35931 ft 475 kts 22°
2026-05-03 23:58 31.47248 -94.17870 36232 ft 473 kts 22°
2026-05-03 23:58 31.49977 -94.15727 36518 ft 472 kts 22°
2026-05-03 23:59 31.52706 -94.13584 36793 ft 471 kts 22°
2026-05-03 23:59 31.55427 -94.11444 37065 ft 470 kts 22°
2026-05-03 23:59 31.60857 -94.07170 37125 ft 467 kts 22°
2026-05-04 00:00 31.66201 -94.02951 37127 ft 460 kts 21°
2026-05-04 00:00 31.71518 -93.98760 37126 ft 459 kts 21°
2026-05-04 00:01 31.76829 -93.94565 37124 ft 459 kts 22°
2026-05-04 00:01 31.82027 -93.90088 37122 ft 466 kts 26°
2026-05-04 00:02 31.87109 -93.85414 37120 ft 467 kts 26°
2026-05-04 00:02 31.92230 -93.80686 37124 ft 468 kts 26°
2026-05-04 00:03 31.97373 -93.75961 37125 ft 469 kts 26°
2026-05-04 00:03 32.02528 -93.71233 37115 ft 470 kts 26°
2026-05-04 00:04 32.07700 -93.66485 37112 ft 471 kts 26°
2026-05-04 00:04 32.12877 -93.61726 37112 ft 471 kts 27°
2026-05-04 00:05 32.18016 -93.56991 37102 ft 471 kts 27°
2026-05-04 00:05 32.23187 -93.52222 37098 ft 471 kts 27°
2026-05-04 00:06 32.28362 -93.47440 37089 ft 471 kts 27°
2026-05-04 00:06 32.33525 -93.42664 37093 ft 471 kts 27°
2026-05-04 00:07 32.38660 -93.37907 37096 ft 471 kts 27°
2026-05-04 00:07 32.43824 -93.33115 37108 ft 471 kts 27°
2026-05-04 00:08 32.48990 -93.28316 37102 ft 472 kts 28°
2026-05-04 00:08 32.54165 -93.23500 37101 ft 472 kts 28°
2026-05-04 00:09 32.59340 -93.18676 37098 ft 473 kts 28°
2026-05-04 00:09 32.64476 -93.13881 37083 ft 473 kts 28°
2026-05-04 00:10 32.69653 -93.09041 37106 ft 473 kts 28°
2026-05-04 00:10 32.74837 -93.04188 37089 ft 474 kts 28°
2026-05-04 00:11 32.80015 -92.99331 37098 ft 474 kts 28°
2026-05-04 00:11 32.85193 -92.94467 37093 ft 475 kts 29°
2026-05-04 00:12 32.90374 -92.89592 37088 ft 475 kts 29°
2026-05-04 00:12 32.95531 -92.84734 37094 ft 475 kts 29°
2026-05-04 00:13 33.00791 -92.79981 37086 ft 473 kts 27°
2026-05-04 00:13 33.06133 -92.75408 37090 ft 472 kts 27°
2026-05-04 00:14 33.11473 -92.70814 37086 ft 473 kts 27°
2026-05-04 00:14 33.16788 -92.66187 37085 ft 473 kts 27°
2026-05-04 00:15 33.22072 -92.61565 37085 ft 473 kts 27°
2026-05-04 00:15 33.27364 -92.56930 37088 ft 474 kts 27°
2026-05-04 00:16 33.32684 -92.52265 37074 ft 474 kts 28°
2026-05-04 00:16 33.38007 -92.47590 37082 ft 474 kts 28°
2026-05-04 00:17 33.43293 -92.42941 37076 ft 474 kts 28°
2026-05-04 00:17 33.48592 -92.38209 37072 ft 478 kts 32°
2026-05-04 00:18 33.53361 -92.32503 37065 ft 491 kts 43°
2026-05-04 00:18 33.57572 -92.26026 37075 ft 493 kts 45°
2026-05-04 00:19 33.61754 -92.19490 37072 ft 493 kts 45°
2026-05-04 00:19 33.65964 -92.12989 37073 ft 493 kts 44°
2026-05-04 00:20 33.70169 -92.06533 37075 ft 493 kts 44°
2026-05-04 00:20 33.74397 -92.00033 37080 ft 493 kts 45°
2026-05-04 00:21 33.78621 -91.93522 37068 ft 493 kts 45°
2026-05-04 00:21 33.82832 -91.87017 37068 ft 493 kts 45°
2026-05-04 00:22 33.87041 -91.80505 37070 ft 492 kts 45°
2026-05-04 00:22 33.91214 -91.74028 37068 ft 492 kts 45°
2026-05-04 00:23 33.95397 -91.67512 37067 ft 492 kts 45°
2026-05-04 00:23 33.99573 -91.60993 37067 ft 491 kts 45°
2026-05-04 00:24 34.03747 -91.54468 37076 ft 491 kts 45°
2026-05-04 00:24 34.07912 -91.47947 37079 ft 491 kts 45°
2026-05-04 00:25 34.12077 -91.41414 37076 ft 490 kts 45°
2026-05-04 00:25 34.16235 -91.34879 37079 ft 491 kts 45°
2026-05-04 00:26 34.20387 -91.28342 37080 ft 491 kts 45°
2026-05-04 00:26 34.24539 -91.21793 37073 ft 491 kts 45°
2026-05-04 00:27 34.28670 -91.15265 37074 ft 491 kts 45°
2026-05-04 00:27 34.32815 -91.08702 37073 ft 491 kts 45°
2026-05-04 00:28 34.36958 -91.02132 37071 ft 491 kts 46°
2026-05-04 00:28 34.41096 -90.95556 37071 ft 491 kts 46°
2026-05-04 00:29 34.45239 -90.88962 37064 ft 491 kts 46°
2026-05-04 00:29 34.49350 -90.82412 37072 ft 491 kts 46°
2026-05-04 00:30 34.53488 -90.75816 37070 ft 491 kts 46°